Theta_e
346 346 346 346 346 347 349 351 350 351 351 351 350 350 349 350 348 348 349 349 348 345 345 346 347 346 349 346 347 347 347 346 346 347 347 347 346 346 346 346 346 345 346 345 345 344 345 343 341 340 339 338 336 327 326 325 326 330 327 329 331 330
345 345 346 346 346 346 348 349 347 348 348 348 349 349 347 347 348 345 349 346 344 346 343 343 344 348 344 346 346 347 347 346 346 346 346 346 346 346 346 346 346 346 345 344 342 334 339 343 341 339 337 335 327 326 326 326 325 328 327 327 329 332
344 345 344 345 345 346 347 346 346 346 347 348 347 347 344 345 342 343 343 343 344 342 341 342 344 345 344 346 345 346 346 346 346 345 346 346 346 346 346 346 346 345 344 339 333 332 332 336 336 339 336 329 326 326 326 326 326 327 325 327 327 335
344 344 344 343 343 344 345 344 345 345 345 344 344 344 342 341 341 341 342 342 341 341 340 341 348 348 347 343 343 346 346 345 345 345 345 343 346 346 346 346 345 343 337 335 332 331 331 332 330 328 326 326 326 326 326 326 326 325 326 331 328 336
343 344 343 343 342 343 344 345 345 345 345 344 343 342 341 340 340 340 340 341 340 339 339 340 341 342 339 339 337 338 340 338 335 335 340 329 332 333 333 330 331 331 329 333 333 331 329 328 328 326 325 326 326 326 326 328 328 327 326 326 330 334
342 343 342 341 343 345 345 344 344 345 345 344 343 342 342 339 337 339 338 338 339 337 337 337 338 338 337 336 335 335 334 334 332 332 333 327 327 326 326 326 326 327 326 329 331 332 330 329 327 327 325 325 326 326 326 325 327 328 328 329 332 334
340 340 340 341 343 344 343 344 344 344 343 342 342 342 342 341 338 338 338 339 337 335 334 335 336 336 335 335 335 333 333 333 332 330 330 329 327 326 325 325 324 324 324 327 331 332 330 329 328 327 326 326 326 326 326 327 326 326 326 328 333 335
337 337 338 341 342 342 342 343 344 345 342 343 342 341 341 340 338 337 338 338 338 334 334 334 335 335 334 333 333 332 332 331 332 331 331 330 326 326 324 323 323 323 325 326 333 331 329 329 328 328 327 327 327 326 326 326 327 327 327 328 329 334
335 336 337 340 340 340 341 342 343 341 340 343 340 340 340 339 338 338 338 338 337 334 333 334 334 334 333 333 332 331 331 330 328 330 330 327 327 326 324 323 323 323 322 326 332 330 329 328 328 328 328 328 327 326 326 326 326 327 328 327 329 332
333 334 336 338 337 339 340 341 342 340 341 341 339 339 339 338 338 338 337 337 337 335 334 334 333 333 333 332 332 329 329 328 327 327 329 329 326 326 325 323 323 324 325 328 331 330 328 327 328 327 328 328 328 328 327 327 327 327 327 327 328 332
334 337 335 334 335 337 339 340 341 340 340 339 339 339 339 338 336 336 336 336 336 336 334 333 333 333 332 331 331 330 329 327 326 326 328 329 326 327 324 324 325 324 325 331 329 328 327 327 326 327 327 328 328 328 328 328 328 329 329 328 328 328
333 334 334 333 334 334 337 340 340 340 339 338 339 338 338 337 336 335 336 336 336 336 336 333 333 332 332 331 330 329 328 328 327 326 328 327 327 326 325 324 326 328 328 331 327 327 326 327 325 327 327 328 328 328 328 329 329 329 329 328 327 327
334 333 332 332 333 333 334 338 340 339 338 338 338 338 336 335 334 335 336 336 336 336 335 334 333 333 334 331 331 330 329 330 329 329 328 328 327 326 328 328 327 329 329 327 327 326 328 326 326 326 327 328 328 328 328 329 328 329 328 327 326 325
334 332 332 332 332 332 333 336 339 339 338 337 337 337 336 334 334 335 336 336 336 336 335 334 333 332 332 330 331 332 331 331 329 329 328 327 327 327 328 327 327 329 331 327 326 325 325 326 328 328 328 328 327 327 328 328 327 327 327 327 325 326
336 332 333 331 332 332 332 336 338 339 338 337 336 336 335 334 334 335 336 336 336 336 335 334 334 333 331 329 330 331 331 332 331 329 329 328 329 329 328 328 329 328 326 325 325 324 326 326 327 327 327 328 328 328 326 326 327 328 328 326 327 325
335 332 332 332 331 332 333 335 336 340 338 337 335 334 334 334 334 335 337 337 337 336 335 334 334 332 331 329 329 331 332 331 332 331 329 329 331 329 328 329 329 328 326 325 325 323 324 325 326 326 328 328 328 328 326 326 327 327 326 327 326 325
334 333 331 331 331 332 333 334 336 338 338 337 335 334 334 334 334 335 337 338 337 336 335 334 333 332 331 330 329 331 331 332 332 331 331 330 330 329 329 329 326 327 328 325 325 324 324 324 326 327 328 328 327 327 327 327 327 325 326 326 325 325
335 334 332 332 332 332 333 334 335 335 337 336 335 335 335 335 335 336 337 337 337 337 335 333 333 331 331 331 330 330 331 332 332 331 331 330 329 329 329 329 326 325 327 326 325 325 325 326 327 327 327 326 327 328 328 328 329 329 326 326 326 326
335 333 332 332 332 332 332 333 334 335 337 336 336 335 334 334 335 336 337 337 337 336 335 333 332 332 330 331 330 329 331 332 332 331 331 329 328 329 328 328 328 326 327 325 325 325 327 327 327 326 326 326 328 328 329 329 328 326 326 326 328 329
334 333 331 331 332 332 333 333 333 334 335 335 332 333 333 334 334 335 336 337 336 334 334 333 331 331 331 332 330 330 330 331 331 331 330 328 327 328 328 327 327 327 326 327 326 326 329 328 327 326 326 327 328 328 328 328 328 327 327 327 328 326
333 331 330 330 331 331 331 332 333 332 331 332 332 332 333 334 334 334 335 335 334 334 333 332 332 331 330 334 331 329 329 330 331 331 330 329 328 328 328 328 327 327 327 325 326 327 328 328 325 324 326 326 326 328 329 328 327 328 328 328 325 323
332 330 329 329 331 332 332 333 332 331 329 329 329 329 331 333 333 333 334 334 332 331 331 332 332 331 331 331 329 329 329 331 332 330 329 329 328 331 328 327 327 326 327 326 325 327 327 325 321 321 320 320 323 325 327 327 327 328 329 328 325 323
331 329 326 328 330 330 329 332 332 330 329 328 331 330 333 333 335 333 332 331 332 332 331 331 332 332 330 330 329 329 330 331 331 330 328 327 328 327 327 327 327 327 326 324 325 327 325 320 320 323 323 320 317 316 321 324 326 326 326 327 327 326
331 329 325 327 330 328 330 331 331 331 330 328 328 331 331 331 331 331 330 331 332 332 331 331 331 332 331 330 329 328 329 329 329 330 329 328 328 327 326 327 326 326 326 324 325 325 324 322 323 321 314 313 316 317 313 317 320 323 326 326 327 325
331 329 326 328 329 329 330 329 329 329 329 327 328 328 329 328 330 330 331 330 330 333 332 331 331 332 332 330 329 329 329 329 330 330 330 329 328 328 327 327 327 326 325 325 323 323 323 321 323 321 318 315 313 312 313 317 320 320 324 324 325 325
331 329 327 328 329 329 328 328 326 325 324 323 323 325 326 327 328 328 328 330 332 333 332 332 332 333 332 331 329 329 329 330 330 330 330 330 329 328 327 326 327 327 326 326 325 322 322 322 323 323 319 316 318 313 312 318 318 312 321 324 324 327
331 329 329 328 329 329 326 327 327 326 326 324 324 325 328 329 329 330 330 330 331 332 333 332 332 332 332 331 330 330 330 330 331 330 330 329 328 327 327 327 327 327 327 326 324 321 322 322 319 322 321 321 319 316 320 318 314 316 314 319 323 323
330 330 329 328 328 329 327 326 326 325 326 325 325 326 328 329 330 331 330 331 330 331 332 333 332 331 331 331 330 330 331 331 331 330 330 329 329 328 328 327 328 328 327 327 325 322 321 321 320 320 321 318 317 318 319 314 318 316 314 313 316 322
329 330 330 328 327 328 328 327 327 326 325 326 326 325 329 330 329 331 329 329 330 331 331 332 332 331 331 330 331 330 331 330 330 330 331 329 329 329 328 327 327 326 325 326 326 324 323 322 321 320 318 313 316 316 314 314 317 312 313 314 316 317
329 329 330 329 328 327 327 327 326 326 325 325 325 325 328 328 328 328 328 328 329 330 330 329 328 329 329 330 330 330 330 331 331 331 331 329 328 328 327 328 327 327 326 326 325 325 324 323 323 321 322 317 314 313 313 313 313 312 315 316 315 316
329 329 329 329 327 326 327 327 327 326 326 325 324 324 325 326 327 327 327 327 327 327 328 328 327 328 329 330 330 330 331 331 331 331 331 329 328 328 327 327 327 327 326 326 325 324 323 322 323 321 320 319 318 319 316 312 314 313 312 311 314 317
328 328 329 329 327 324 325 326 326 326 326 325 324 324 324 325 327 327 327 326 326 326 326 327 328 328 328 329 329 330 331 331 330 330 330 329 329 328 327 327 327 326 326 326 325 325 323 322 322 321 320 319 319 320 316 315 317 317 316 314 315 315
328 328 328 326 324 324 325 325 326 326 325 325 325 324 324 325 326 327 328 327 325 325 325 325 325 326 327 328 328 327 326 328 329 330 330 328 328 328 327 326 326 326 326 325 325 324 323 323 323 322 321 319 319 319 318 316 319 317 314 316 317 315
324 325 324 323 323 323 323 324 325 325 324 325 325 325 325 325 325 326 327 327 326 326 325 325 324 325 326 327 328 328 328 328 329 329 328 328 328 328 327 326 326 326 325 326 325 324 324 323 323 322 322 320 320 320 317 319 319 317 316 316 315 315
323 323 322 322 322 322 323 324 325 326 324 323 324 325 325 325 325 325 326 328 328 327 326 325 325 326 327 327 328 328 327 328 328 328 327 327 328 327 327 327 326 326 326 325 325 324 322 322 323 321 320 321 321 319 319 318 319 318 319 318 317 316
320 319 320 322 322 323 323 324 326 327 326 324 324 325 324 324 324 325 326 328 328 327 327 326 326 327 327 329 328 328 328 327 326 326 326 326 327 327 326 326 325 325 325 326 324 323 322 322 322 321 321 319 320 320 320 320 320 319 319 319 318 318
320 319 320 321 321 323 323 324 326 326 325 324 324 325 325 325 325 325 326 328 329 328 328 327 327 328 327 328 328 327 327 325 325 325 326 326 327 327 326 326 325 324 324 324 324 323 321 322 322 321 320 320 321 321 320 320 320 319 319 319 319 320
Wind_Speed
6 7 7 6 5 6 9 15 12 14 13 13 12 13 11 11 11 12 12 11 10 7 6 7 9 7 13 8 10 12 10 9 8 8 9 10 10 9 9 9 10 10 10 10 9 9 9 13 14 14 13 13 12 6 5 4 4 3 3 3 3 4
5 6 6 5 4 4 5 9 6 7 7 9 11 11 8 7 7 4 11 8 6 5 5 5 6 9 5 8 8 11 10 9 8 7 7 9 10 9 8 9 10 9 9 9 9 5 4 12 16 14 13 13 7 5 5 4 3 3 3 3 3 4
7 7 6 5 5 5 6 5 4 5 5 8 7 6 4 5 3 4 4 4 4 4 4 4 5 6 6 10 8 11 10 10 8 7 6 8 8 9 8 8 9 8 9 10 6 4 5 6 8 14 12 7 5 5 5 4 4 4 3 2 2 10
8 8 7 5 4 5 4 5 5 4 5 5 4 4 4 4 3 4 4 4 4 4 4 4 10 13 11 6 6 10 11 10 9 7 6 4 7 8 8 8 8 7 6 4 5 5 6 5 6 5 6 5 5 5 5 4 4 4 3 3 3 10
5 6 6 5 5 5 5 5 5 5 5 5 5 4 4 4 4 4 4 3 4 3 4 4 4 5 4 4 3 4 5 4 3 3 4 2 3 4 4 4 3 4 5 5 5 6 6 6 5 5 5 5 5 4 4 3 4 4 3 3 4 10
6 5 5 5 5 6 7 5 5 5 5 4 6 5 4 4 4 5 4 3 3 4 3 3 3 4 4 3 3 3 4 4 4 4 3 2 2 3 3 3 3 3 6 5 5 5 5 7 6 5 5 5 5 4 4 3 3 3 2 4 6 11
6 6 5 5 5 5 4 4 4 5 5 5 5 5 5 4 4 3 5 4 5 4 4 4 4 4 4 3 4 3 4 4 4 4 3 3 0 1 2 3 2 1 5 6 5 5 4 4 6 7 5 5 4 4 4 3 3 3 2 3 5 11
5 6 5 6 6 5 5 5 6 6 5 6 6 5 4 5 5 4 5 4 4 4 4 4 4 4 4 3 3 2 3 4 4 4 3 4 2 0 1 2 1 1 4 5 6 4 4 4 5 6 7 5 4 5 4 3 3 3 3 3 3 8
5 5 5 5 5 5 5 5 6 5 5 7 5 5 5 6 6 4 5 5 4 5 4 4 4 4 3 3 3 3 3 3 3 3 3 3 3 2 1 1 1 2 3 5 6 5 4 4 4 4 7 6 5 5 4 3 3 3 3 2 3 7
4 5 5 5 5 5 5 6 6 6 5 7 5 6 7 5 5 5 5 5 5 5 5 5 5 4 5 4 3 2 2 2 4 2 3 4 3 4 4 2 2 1 3 4 5 4 4 4 4 3 4 6 6 5 4 3 3 3 2 2 2 4
4 5 5 5 5 5 5 6 6 5 5 6 5 6 6 6 5 5 5 5 5 5 5 5 5 5 4 4 3 4 3 2 2 3 3 4 3 3 3 3 3 3 4 5 5 4 4 5 4 3 3 5 5 5 4 3 3 3 3 3 3 3
5 5 6 6 6 6 6 6 6 6 5 5 6 5 6 6 6 5 5 6 5 5 5 4 5 4 5 4 4 4 3 3 4 3 4 3 3 2 3 2 2 2 4 5 5 4 3 5 4 3 3 4 4 5 4 4 3 3 3 3 3 3
7 6 7 7 6 6 5 6 6 6 5 6 5 5 6 5 5 5 5 5 5 5 5 6 4 5 4 5 4 4 4 4 4 4 4 3 2 3 3 3 2 3 6 5 4 4 4 4 5 3 3 4 4 4 4 4 3 3 3 3 3 3
7 8 7 6 6 6 5 5 5 6 6 7 6 6 6 5 5 5 5 5 5 5 5 5 6 4 4 4 4 4 5 5 4 4 4 3 3 3 4 4 3 5 6 5 5 4 5 6 4 4 3 3 4 3 4 4 3 3 3 3 3 3
8 7 7 7 6 6 5 6 6 6 6 7 6 7 6 6 6 6 5 5 5 5 5 5 5 6 5 4 5 5 5 5 4 3 4 3 4 4 4 5 5 6 5 4 3 3 4 5 7 5 4 4 4 3 3 3 3 3 3 3 4 3
9 9 7 7 6 7 8 7 6 7 7 7 7 7 6 6 6 6 6 6 6 6 5 5 5 5 5 5 5 5 5 4 3 3 3 3 4 5 4 5 3 7 7 4 4 4 4 5 5 6 5 4 4 3 3 3 3 3 3 3 3 3
12 11 8 8 9 9 8 8 8 8 8 7 7 6 6 6 6 7 6 6 6 6 6 6 6 5 6 5 4 3 4 4 4 5 4 4 4 5 6 5 3 2 7 6 5 5 5 4 6 5 5 5 4 4 3 2 2 3 3 3 3 3
9 9 8 10 10 8 6 6 6 6 6 7 7 6 6 6 6 7 7 7 8 8 7 7 6 6 5 5 3 4 4 5 5 5 5 5 5 5 5 6 5 2 4 7 5 6 6 6 6 6 4 5 5 3 3 2 1 2 3 3 3 3
9 8 8 8 7 5 5 5 4 5 6 6 5 2 2 2 3 5 6 8 8 8 8 7 7 6 6 5 4 3 4 5 5 5 5 5 5 5 5 4 7 4 3 3 6 5 6 6 6 6 5 6 5 5 3 2 2 2 2 2 2 3
9 9 7 6 6 6 5 6 5 4 5 5 4 5 5 6 4 3 4 7 8 7 7 7 7 6 6 6 5 5 4 4 5 5 6 6 5 6 7 6 5 7 6 6 5 5 6 7 7 7 6 6 6 4 4 2 2 2 2 1 2 2
10 9 8 7 7 8 7 6 5 7 7 4 5 3 6 6 7 5 3 6 5 6 6 6 6 6 7 6 6 4 4 4 5 5 6 6 6 6 6 7 6 4 8 7 4 4 5 6 8 6 5 6 5 3 4 4 3 3 2 2 2 1
8 9 8 7 7 7 6 6 6 6 4 4 2 6 7 6 7 7 6 4 5 3 4 6 6 6 6 6 6 5 5 6 5 5 4 4 4 5 6 6 7 5 2 6 5 6 7 6 3 4 6 4 4 3 4 4 4 3 2 2 2 1
9 8 5 6 6 6 3 4 5 4 7 3 3 4 2 1 6 7 7 6 7 5 5 5 6 6 6 6 6 6 6 5 5 5 6 5 5 6 6 8 8 8 6 1 3 4 6 1 6 4 5 5 3 1 0 2 2 2 2 2 3 2
10 7 6 6 5 4 6 5 4 6 4 3 1 2 2 4 3 3 5 7 8 7 7 4 3 4 5 5 6 6 5 5 5 4 6 7 6 7 6 6 6 6 8 7 4 4 3 1 6 9 4 1 2 0 2 2 2 1 1 3 3 3
9 8 7 8 7 7 8 7 6 6 6 5 1 3 2 4 6 7 7 8 8 7 6 6 9 7 6 7 6 5 6 5 6 6 5 6 7 8 8 8 8 8 8 9 7 4 5 2 5 1 8 5 3 2 2 1 3 2 1 2 2 3
8 8 9 10 9 9 9 9 8 8 8 7 6 7 9 9 8 9 8 6 7 7 8 7 8 8 7 6 7 7 6 6 5 6 6 7 7 6 7 7 8 8 8 6 10 7 5 2 5 3 0 1 4 5 6 3 2 3 0 1 3 3
3 4 7 8 9 8 8 7 10 10 10 10 10 9 7 5 7 5 6 8 8 8 9 9 8 8 7 7 7 6 6 6 6 6 6 6 7 8 8 8 7 6 7 7 5 9 8 6 2 4 2 0 1 2 7 8 4 3 3 1 2 2
5 3 3 3 6 7 8 7 7 7 8 8 9 9 9 7 6 5 7 8 8 8 10 10 9 7 6 6 6 6 5 5 6 6 6 7 8 7 6 5 7 7 6 7 8 8 7 6 8 5 2 1 1 3 4 2 4 5 4 6 3 2
1 4 4 4 6 7 7 8 8 7 7 8 6 3 4 5 6 6 7 6 7 8 8 7 7 7 4 2 4 7 6 6 6 6 6 6 6 7 8 7 6 5 6 6 6 5 7 7 6 6 4 2 3 3 2 1 4 2 3 4 2 3
5 4 5 5 7 8 7 6 7 8 9 7 4 3 4 6 6 7 7 7 6 6 6 4 3 3 4 4 5 4 6 7 7 7 6 6 6 6 5 7 8 8 7 7 5 5 7 6 7 5 4 5 3 3 3 2 0 2 3 1 4 7
7 6 7 7 7 8 7 7 8 9 9 7 5 5 6 6 5 6 7 6 5 4 4 4 5 5 4 5 5 5 5 6 6 6 6 6 7 7 6 7 7 7 7 7 6 5 4 4 6 5 5 6 7 9 8 6 7 5 4 3 4 4
9 9 8 8 6 7 6 6 5 6 7 5 5 5 6 6 6 6 5 5 5 6 7 6 6 7 8 7 7 7 6 6 6 6 7 7 6 6 6 6 6 6 6 6 6 6 5 5 6 5 5 5 6 7 4 5 7 7 7 6 7 6
6 5 3 5 10 9 9 8 5 5 4 4 5 5 5 5 5 6 6 6 6 6 5 5 6 7 8 11 9 5 4 7 6 7 7 6 6 7 7 6 6 6 6 7 7 7 7 7 7 7 7 5 5 5 6 2 6 6 3 5 6 6
2 3 4 6 4 2 5 8 10 6 4 4 5 7 7 7 5 5 4 6 7 7 7 7 6 8 8 9 8 10 8 8 7 7 7 7 7 7 7 7 6 6 6 6 6 7 7 6 6 6 5 6 5 6 4 4 6 6 6 7 6 7
0 3 4 5 6 7 5 4 8 8 5 3 3 6 7 6 6 6 5 6 7 7 7 7 7 6 6 8 8 8 9 9 7 7 6 6 6 6 7 6 6 6 6 6 6 6 5 6 6 6 5 6 6 5 5 5 6 6 6 7 8 8
1 1 0 3 5 8 12 12 9 8 7 4 3 4 4 4 5 4 4 5 6 7 7 7 6 6 6 8 8 9 8 7 6 6 6 6 6 6 6 6 5 5 6 4 6 6 6 6 6 6 6 4 5 5 5 5 5 6 6 6 6 7
2 4 4 6 7 7 5 4 8 6 6 5 6 7 7 5 4 3 4 5 5 6 7 7 7 7 7 7 8 8 7 6 5 5 6 6 6 6 6 6 6 6 6 5 5 6 5 6 5 5 5 6 6 5 5 4 4 5 5 5 6 7
Wind_Direction
154 156 156 155 150 150 160 154 150 152 152 145 142 143 142 144 147 152 150 144 133 126 130 134 133 137 136 131 133 134 132 131 126 124 118 114 112 108 104 95 88 87 84 82 77 85 113 124 115 112 111 107 98 86 87 84 87 91 86 89 98 115
137 144 139 131 115 116 145 147 142 149 148 145 145 143 140 145 145 146 151 132 124 132 127 127 136 139 128 137 134 136 132 128 126 119 115 112 109 106 99 93 90 87 85 76 70 63 91 125 120 113 108 103 96 104 103 97 91 93 87 93 105 110
137 130 124 115 122 131 139 124 133 131 139 146 146 128 122 138 97 121 111 115 117 118 126 131 131 133 137 140 140 138 131 129 123 120 114 108 109 105 99 92 90 90 80 74 67 68 90 107 114 114 109 104 113 112 105 106 107 109 116 124 142 130
129 127 128 120 121 130 129 131 129 123 117 129 122 109 110 112 103 104 106 102 114 123 121 124 146 143 144 140 146 141 134 130 126 122 111 89 103 109 100 93 89 82 75 72 74 83 95 102 102 104 111 117 119 122 119 121 123 122 127 121 124 125
111 130 130 120 126 125 122 127 124 121 127 134 128 112 108 99 113 102 97 101 117 121 125 131 136 128 118 138 133 130 120 104 94 88 86 60 64 75 75 78 65 65 75 74 79 93 109 112 114 116 119 123 120 118 113 114 117 112 110 117 112 115
94 102 117 120 124 138 135 133 132 122 119 119 124 126 117 117 119 115 109 118 109 116 117 118 114 124 130 134 134 129 124 122 112 115 101 72 60 78 81 73 82 83 77 80 89 101 117 130 128 120 117 115 113 105 110 111 98 91 92 101 118 127
120 129 118 107 109 105 113 116 114 119 114 117 119 123 127 134 131 137 129 139 140 140 131 130 132 133 138 134 136 134 133 130 132 129 133 119 110 65 76 84 73 67 78 89 91 98 110 126 128 125 119 117 113 115 112 111 109 103 95 115 136 133
119 127 126 125 122 117 120 128 126 137 125 132 130 126 137 142 138 148 145 151 144 144 146 145 144 146 148 134 145 144 133 136 138 144 145 142 149 296 77 75 80 39 72 98 101 106 111 119 125 126 125 125 122 119 115 119 120 120 120 120 120 125
126 123 122 127 124 124 127 124 133 133 135 142 134 139 145 145 151 161 152 155 153 151 147 147 152 155 140 146 140 146 159 155 150 160 150 155 155 167 141 113 71 59 72 89 105 118 123 113 117 130 133 134 135 129 124 119 124 119 111 114 127 135
127 122 124 123 130 135 137 135 142 142 144 146 143 145 147 154 157 158 159 163 166 159 160 156 155 153 156 156 155 155 163 170 172 177 174 175 176 158 165 121 92 102 96 97 110 138 134 124 115 122 131 135 138 135 129 126 111 102 93 88 103 127
128 136 131 134 145 141 144 146 145 146 145 145 147 148 153 155 161 165 164 164 167 165 154 153 156 159 158 158 161 165 188 185 194 207 199 197 163 170 150 150 161 167 127 113 122 138 134 123 116 107 116 129 133 126 126 116 109 103 94 89 79 88
135 140 146 149 147 149 157 159 149 151 146 143 150 153 155 161 165 167 164 166 167 165 154 154 156 162 163 167 174 180 182 190 216 218 210 203 177 139 137 134 138 133 104 116 123 125 117 116 109 106 122 127 125 124 122 123 116 104 105 94 86 73
146 156 160 163 156 152 153 156 154 154 145 148 154 155 160 168 165 167 166 167 167 164 160 159 166 172 172 176 179 183 188 205 209 207 209 209 151 122 122 115 94 97 99 102 117 117 94 86 101 106 115 119 112 110 115 113 108 107 104 101 91 80
157 165 170 161 149 147 153 152 151 149 152 155 160 163 169 167 168 171 170 168 166 166 165 165 164 176 174 177 188 195 198 209 208 205 204 187 145 148 127 122 130 109 118 131 142 142 117 106 95 100 100 103 97 103 109 104 108 113 114 105 106 101
168 170 168 162 152 148 157 160 159 161 163 163 165 170 174 170 172 173 165 167 168 170 171 171 170 173 176 178 191 197 197 208 200 195 193 175 150 148 140 139 140 113 101 107 120 103 99 101 117 112 94 100 108 106 94 107 112 120 114 119 110 105
170 175 171 158 155 160 169 168 163 167 165 167 169 173 173 175 172 168 169 167 172 173 173 174 171 172 177 185 199 192 202 182 175 175 179 150 140 145 143 137 151 132 120 119 122 91 82 99 99 105 99 96 96 106 103 106 120 119 126 122 112 115
177 179 164 161 169 175 169 168 171 168 168 167 172 174 175 170 169 172 171 170 173 176 178 175 174 173 174 191 209 199 190 168 158 160 156 148 152 148 141 136 132 155 139 140 131 114 97 100 104 100 101 93 83 104 94 109 120 133 115 113 125 136
177 176 169 176 181 172 164 159 165 162 163 170 173 174 175 173 176 175 171 173 176 179 178 178 176 170 176 189 190 190 179 155 155 152 146 150 158 148 143 140 131 99 126 130 136 134 123 118 110 109 93 83 95 98 109 114 129 127 131 144 139 148
177 174 176 180 171 147 147 153 149 153 167 175 163 131 136 177 201 182 181 178 178 181 180 178 175 171 174 180 184 192 175 155 151 157 146 142 139 143 139 138 139 118 71 68 129 128 129 123 113 105 91 84 87 88 89 104 67 108 120 143 147 136
182 181 174 161 149 152 151 157 150 159 177 176 148 168 185 185 169 210 205 182 182 183 179 178 176 172 175 175 184 190 172 150 153 154 148 145 151 155 148 132 135 131 109 93 84 121 127 122 109 103 97 86 79 80 84 92 99 84 84 93 60 91
188 183 174 162 164 166 163 148 160 181 185 167 173 187 190 174 171 163 197 188 190 189 183 177 176 170 179 181 184 173 155 159 155 164 160 166 162 161 151 140 134 131 132 123 117 127 128 123 116 99 95 103 98 110 126 122 126 129 129 109 109 221
189 193 180 166 168 170 173 176 172 184 156 147 135 178 192 187 184 163 182 188 187 223 207 184 178 177 177 180 176 171 175 172 163 165 156 148 153 148 136 134 135 111 109 139 140 156 154 134 73 131 136 120 83 73 102 125 137 140 125 123 84 93
198 187 159 159 160 164 132 130 147 174 172 130 156 191 134 182 176 167 174 189 186 191 215 199 181 177 177 183 176 170 185 179 163 150 140 149 152 149 154 152 154 145 136 68 100 158 175 109 129 113 84 90 105 67 94 85 78 81 113 128 134 123
197 173 142 168 155 119 124 118 112 144 138 87 99 192 112 136 129 104 188 182 184 186 190 195 167 189 188 181 172 180 179 174 132 180 154 154 161 155 155 156 149 151 144 140 157 179 193 182 141 133 122 144 124 64 156 202 142 114 94 122 130 115
187 168 156 168 152 139 135 128 125 114 113 91 116 159 169 187 177 186 183 190 194 171 164 197 196 195 187 179 176 178 179 179 156 170 156 155 167 171 171 166 161 156 169 157 161 163 203 166 186 162 134 129 89 193 225 156 139 78 105 133 122 130
180 167 172 172 161 157 164 160 154 148 158 170 182 189 198 195 188 190 187 175 172 161 172 211 203 193 187 177 180 181 180 175 172 160 165 171 169 165 167 168 175 169 171 184 160 163 179 226 206 198 129 100 167 173 168 178 154 159 177 148 152 155
197 190 180 174 171 166 164 171 174 177 174 179 185 202 192 182 189 184 167 179 172 162 177 195 209 192 188 183 179 178 179 179 171 169 169 165 164 175 177 180 176 175 178 163 154 162 177 185 187 258 252 291 195 147 150 143 189 107 163 151 172 138
351 323 282 222 195 185 171 177 181 184 186 191 195 189 181 184 174 166 177 177 170 176 181 194 197 193 191 184 175 175 173 172 170 174 170 177 173 175 174 182 185 184 167 170 169 165 171 167 176 210 182 177 74 100 124 65 144 159 135 155 153 91
248 250 240 248 231 216 196 182 183 183 197 212 205 191 176 155 164 170 179 176 174 177 186 190 192 188 180 201 186 177 173 170 179 178 180 176 173 166 170 173 181 174 177 176 179 166 157 179 183 182 129 51 86 105 64 42 132 100 141 147 100 150
204 220 231 222 238 236 221 193 186 191 201 200 169 161 168 169 172 175 181 175 173 174 183 180 158 125 156 215 245 206 179 178 184 175 176 176 163 164 168 172 179 182 182 178 181 165 176 179 185 174 167 149 122 112 74 72 124 120 81 64 161 178
196 201 221 226 231 241 234 210 202 197 198 191 177 166 170 182 174 178 187 173 159 127 123 151 125 132 178 227 241 249 191 186 179 174 171 167 171 171 173 172 177 180 179 178 179 178 180 181 177 168 166 164 162 170 174 173 182 183 155 145 120 142
199 200 211 223 242 254 258 242 227 207 200 180 169 176 185 188 189 189 183 160 150 160 182 176 160 156 172 171 207 226 210 182 182 176 178 174 170 173 171 169 167 173 179 184 178 178 177 174 182 178 178 180 178 185 175 162 176 169 167 164 155 154
227 220 225 41 18 339 322 302 272 243 217 167 165 171 189 193 197 196 179 162 168 192 186 181 174 175 185 169 180 234 242 207 187 186 176 170 177 172 166 168 172 172 170 176 183 182 181 189 181 181 186 194 184 186 194 163 151 153 113 125 134 133
53 85 109 105 127 84 342 323 301 278 249 197 174 176 192 194 186 187 186 183 177 191 200 201 189 193 184 180 186 186 204 211 190 182 174 176 174 174 167 169 173 173 178 183 174 180 188 185 185 191 165 172 190 195 183 169 157 144 148 134 143 153
328 130 133 162 169 151 153 205 261 262 247 239 202 199 195 188 186 184 191 195 193 189 198 197 195 200 183 183 190 185 192 203 187 180 175 175 172 168 169 165 173 177 176 173 176 173 183 175 182 177 176 183 185 184 179 176 161 171 162 170 157 157
246 250 264 229 220 196 197 194 204 231 229 214 216 226 223 193 193 193 195 205 209 201 199 190 191 182 191 185 184 185 190 192 181 172 173 172 170 170 166 163 166 170 175 167 168 176 184 179 189 182 181 174 167 196 179 173 178 171 178 168 155 157
314 10 284 255 244 243 258 203 203 212 221 206 200 209 211 207 195 188 209 218 220 219 203 191 188 186 184 186 177 176 181 179 175 175 174 175 172 170 166 165 168 170 175 171 166 182 174 183 190 174 168 176 188 183 184 172 176 178 173 160 170 171